Hourly Data Report for October 05, 2013

All times are specified in Local Standard Time (LST). Add 1 hour to adjust for Daylight Saving Time where and when it is observed.

IQALUIT CLIMATE
NUNAVUT

63°44'50.000" N
68°32'40.000" W
33.50 m
2402592
71321
XFB

Download Data

Hourly Data (October 2013)
Hourly Data Report for October 5, 2013
Temp Definition
°C
Dew Point Temp Definition
°C
Rel Hum Definition
%
Wind Dir Definition
10's deg

Wind Spd Definition
km/h
Visibility Definition
km
Stn Press Definition
kPa
Hmdx Definition


Wind Chill Definition


Weather Definition


TIME
00:00 0.5 0.4 99 33 13   101.36     LegendNANA
01:00 0.5 0.3 99 33 17   101.38     LegendNANA
02:00 0.3 0.0 98 33 15   101.41     LegendNANA
03:00 0.8 -1.6 84 34 17   101.42     LegendNANA
04:00 0.9 -2.5 78 34 13   101.45     LegendNANA
05:00 0.5 -2.8 78 34 15   101.47     LegendNANA
06:00 0.0 -2.3 84 33 13   101.48   -4 LegendNANA
07:00 -0.3 -2.7 84 35 19   101.51   -5 LegendNANA
08:00 -0.7 -3.3 83 36 19   101.51   -6 LegendNANA
09:00 -1.1 -3.9 81 35 20   101.52   -7 LegendNANA
10:00 -1.3 -4.5 79 36 17   101.54   -6 LegendNANA
11:00 -1.4 -5.1 76 35 15   101.52   -6 LegendNANA
12:00 -0.6 -4.4 75 34 15   101.51   -5 LegendNANA
13:00 -1.3 -5.6 73 35 13   101.53   -6 LegendNANA
14:00 -1.4 -5.1 76 35 13   101.53   -6 LegendNANA
15:00 -2.1 -5.6 77 34 19   101.57   -8 LegendNANA
16:00 -2.5 -6.2 76 35 19   101.63   -8 LegendNANA
17:00 -2.8 -6.2 77 1 19   101.62   -9 LegendNANA
18:00 -3.0 -6.4 77 35 19   101.65   -9 LegendNANA
19:00 -3.1 -6.5 77 34 22   101.67   -9 LegendNANA
20:00 -3.1 -6.5 77 34 19   101.67   -9 LegendNANA
21:00 -3.2 -6.4 79 34 20   101.67   -9 LegendNANA
22:00 -3.6 -6.8 78 36 19   101.71   -10 LegendNANA
23:00 -3.9 -7.3 77 36 19   101.73   -10 LegendNANA

Notes on Data Quality.

Legend

  • E = Estimated
  • M = Missing
  • NA = Not Available
  • ‡ = Partner data that is not subject to review by the National Climate Archives
Date modified: